Regional Weather Roundup
Issued by NWS

Home | Current Version | Previous Version | Text Only | Print | Product List | Glossary On
Versions: 1 2 3 4 5 6 7 8 9 10 11 12 13 14 15 16 17 18 19 20 21 22 23 24 25 26 27
000
ASUS45 KREV 272210
RWRNV
NEVADA REGIONAL WEATHER ROUNDUP
NATIONAL WEATHER SERVICE RENO NV
300 PM PDT SAT AUG 27 2016

NOTE: "FAIR" INDICATES FEW OR NO CLOUDS BELOW 12,000 FEET WITH NO
SIGNIFICANT WEATHER AND/OR OBSTRUCTIONS TO VISIBILITY.

NVZ001-003-004-272300-
WESTERN NEVADA

CITY           SKY/WX    TMP DP  RH WIND       PRES   REMARKS
RENO           SUNNY     91  21   8 W7        30.02F
CARSON CITY    FAIR      88  18   7 W17       30.07F
MINDEN         FAIR      88  28  11 W15G23    30.06F
PYRAMID LAKE     N/A     82 N/A N/A N3          N/A
FALLON         SUNNY     92  43  18 W7        29.99F
LOVELOCK       SUNNY     90  27  10 CALM      29.98F
$$

NVZ002-CAZ072-073-272300-
NORTHERN AND CENTRAL SIERRA

CITY           SKY/WX    TMP DP  RH WIND       PRES   REMARKS
S. LAKE TAHOE  SUNNY     79  26  14 VRB5G17   30.18F
TRUCKEE        SUNNY     81  25  12 W16       30.17F
SQUAW VLY 8000 NOT AVBL
MAMMOTH LAKES  FAIR      81  21  11 CALM      30.21F
BRIDGEPORT       N/A     83  24  11 SW12G20   30.16F
$$

NVZ030-031-036-272300-
NORTHERN NEVADA

CITY           SKY/WX    TMP DP  RH WIND       PRES   REMARKS
ELKO           SUNNY     86  13   6 W7G18     30.05F
WINNEMUCCA     SUNNY     90  26  10 W8        30.00F
WENDOVER       SUNNY     86  28  12 SE13      30.00F
$$

NVZ035-037-272300-
CENTRAL NEVADA

CITY           SKY/WX    TMP DP  RH WIND       PRES   REMARKS
ELY            SUNNY     82  25  12 N9        30.12F
EUREKA           N/A     84  19   9 W13G24    30.09F
$$

NVZ013-014-272300-
SOUTH CENTRAL NEVADA

CITY           SKY/WX    TMP DP  RH WIND       PRES   REMARKS
TONOPAH        SUNNY     85  22  10 VRB7      30.09F
$$

NVZ017-020-022-272300-
SOUTHERN NEVADA

CITY           SKY/WX    TMP DP  RH WIND       PRES   REMARKS
LAS VEGAS      MOSUNNY   87  46  24 NE6       29.94F
N. LAS VEGAS   MOSUNNY   86  49  27 E7        29.97F
NELLIS AFB     MOSUNNY   85  52  31 W5        29.96F
HENDERSON      MOSUNNY   87  51  28 E7        30.00F
MERCURY        SUNNY     90  42  18 SW9       29.98F
$$




USA.gov is the U.S. government's official web portal to all federal, state and local government web resources and services.